Dewpoint
28 30 33 28 25 24 25 24 27 28 29 30 26 27 29 31 23 23 34 35 36 35 37 39 41 43 45 46 47 48 49 48 48 48 45 46 46 45 48 50 50 51 51 52 52 51 50 52 52 53 56 54 56 56 55 55 57 58 58 58 58 57 57 58 58 58 59 58 60 58 58 57 58 55 55 54 52 50 51 51 52 50 52 53 56 55 57
28 26 30 29 25 25 24 27 24 26 29 31 32 32 31 31 31 34 37 38 38 36 36 39 40 41 41 45 49 49 48 48 48 45 45 47 44 46 48 49 49 50 48 47 48 50 49 49 50 49 50 51 51 52 55 56 57 56 59 58 57 56 56 56 56 57 59 58 58 58 58 58 58 58 57 58 57 54 52 51 54 59 58 59 58 59 55
29 27 27 27 27 27 27 27 27 28 31 28 29 29 32 30 29 28 33 35 34 36 39 39 41 43 43 44 44 47 49 49 50 47 45 44 44 42 47 47 47 46 46 47 48 48 50 51 52 51 50 49 49 51 52 53 52 53 53 55 54 55 55 56 56 56 56 56 56 57 57 57 58 57 57 57 57 58 58 58 58 58 57 56 56 58 59
26 26 27 26 28 29 30 30 31 30 31 29 32 31 35 32 32 31 27 24 33 35 38 40 43 42 42 42 41 42 42 44 46 47 50 45 43 43 43 44 44 45 44 46 47 49 50 50 52 51 51 48 49 48 49 49 51 52 55 54 54 54 55 55 55 55 55 55 54 55 56 56 57 57 59 57 56 56 58 58 58 58 58 57 57 58 58
23 26 27 28 30 29 28 29 32 31 30 31 32 32 33 33 33 28 25 29 34 35 36 37 37 38 38 39 40 41 41 41 40 41 44 48 45 43 49 43 43 42 42 43 46 46 44 46 47 49 49 50 51 49 49 49 50 53 53 53 53 55 55 54 53 54 54 54 55 56 56 56 57 56 56 57 56 55 56 56 57 57 57 59 58 59 59
23 27 29 32 28 23 24 35 35 32 32 31 29 32 32 33 34 33 36 35 35 35 35 35 35 35 36 38 39 40 40 41 41 41 41 40 41 41 41 41 41 42 42 43 44 44 45 44 45 47 48 49 50 51 49 48 48 49 47 49 49 50 52 53 53 54 54 54 54 55 55 56 55 55 54 53 54 54 55 57 57 57 59 59 59 55 56
22 29 29 26 23 23 33 35 33 34 32 30 32 31 32 31 32 33 33 33 34 33 33 33 34 34 34 34 33 34 36 39 41 41 41 42 41 41 41 40 38 37 37 39 41 42 43 43 45 43 41 44 47 45 45 44 44 46 44 44 49 49 50 49 50 52 52 52 53 54 53 52 52 52 53 54 54 55 56 58 57 57 57 55 54 55 56
27 27 26 22 21 31 33 31 33 33 30 32 32 32 32 32 32 32 31 32 32 32 31 31 31 31 30 29 30 31 32 34 36 36 38 39 40 41 42 40 38 37 39 36 38 40 41 41 41 41 42 41 41 41 40 40 39 39 39 39 39 42 43 44 46 46 47 47 49 49 49 49 50 51 52 54 53 53 53 53 53 52 50 50 49 48 48
23 25 25 22 30 31 29 29 30 30 30 31 29 24 30 34 32 31 31 31 31 31 31 30 30 30 29 28 28 29 29 31 31 31 31 34 35 37 39 39 39 39 38 39 40 43 43 42 41 41 42 44 43 41 38 37 37 37 39 38 37 39 40 40 41 41 42 43 44 45 46 47 47 49 49 50 49 49 49 49 48 48 47 47 46 47 47
22 20 21 23 24 23 27 33 32 34 36 35 36 31 29 33 31 31 30 31 31 31 31 31 31 32 28 27 27 28 28 28 30 32 33 34 35 35 37 38 39 41 42 44 45 45 44 43 43 44 46 45 45 42 40 39 36 36 37 38 37 38 38 38 39 39 40 39 41 42 42 43 45 47 47 47 47 46 45 45 45 45 45 45 45 45 45
23 21 19 20 21 23 30 32 31 31 29 34 36 28 23 30 30 29 31 29 30 31 30 30 33 31 29 25 27 29 29 28 28 27 27 27 29 31 35 37 39 43 44 44 46 45 44 40 42 44 44 44 40 42 42 42 41 37 38 37 39 38 38 37 37 37 38 39 40 40 41 42 44 44 44 44 44 45 44 44 45 43 41 42 43 44 45
23 23 20 18 26 23 31 32 31 28 31 30 32 21 18 30 29 29 28 28 29 30 31 32 30 27 26 24 27 28 29 29 30 29 28 28 27 26 27 30 34 34 34 34 35 35 35 35 36 37 38 37 38 38 42 39 39 37 38 39 39 39 39 40 40 40 41 40 41 40 39 42 43 43 43 43 44 43 44 42 40 40 39 40 42 44 45
22 24 23 25 26 29 31 30 30 28 34 33 23 18 25 29 29 29 30 30 31 31 30 31 27 28 28 28 29 31 29 28 28 29 30 29 29 28 28 29 33 30 30 32 31 32 33 34 35 36 36 37 36 37 39 39 39 39 38 38 38 39 39 40 39 38 38 40 42 41 40 42 43 42 41 42 43 43 42 42 41 40 41 41 43 43 44
16 21 21 24 27 31 33 31 29 31 32 23 20 27 31 30 28 29 29 30 29 29 29 30 29 29 28 28 29 29 29 30 31 29 29 31 30 30 32 32 29 30 29 32 33 33 33 32 32 32 34 36 36 36 36 38 39 37 38 37 37 36 36 36 37 38 40 42 42 43 41 41 42 42 41 41 41 41 40 39 41 42 43 41 41 42 43
20 19 17 22 19 28 31 31 28 29 25 25 27 28 28 29 28 28 28 28 28 29 29 30 31 29 28 29 29 30 30 31 30 30 30 30 29 30 30 31 28 27 27 29 31 33 33 34 33 33 32 32 33 34 36 40 39 37 36 37 36 36 36 37 37 38 40 42 44 46 45 44 43 44 43 41 41 41 42 41 41 42 43 41 39 39 41
19 18 17 23 27 29 31 31 26 27 27 28 29 28 29 31 30 29 29 30 30 30 30 29 29 30 30 30 31 30 30 30 31 29 31 33 32 31 30 30 31 29 28 30 30 31 33 33 34 34 35 33 33 33 33 37 38 37 35 36 36 36 36 37 37 36 36 37 40 42 44 44 43 45 44 43 42 42 41 41 41 41 42 41 38 39 39
24 24 26 30 30 29 30 31 31 32 32 32 31 31 31 30 29 31 28 30 30 30 29 29 29 28 29 29 29 29 30 28 29 28 27 31 33 32 32 32 33 32 29 32 31 31 31 33 33 33 34 34 35 35 36 36 34 34 33 34 36 36 36 35 35 34 36 36 37 40 42 43 43 42 43 44 42 42 42 41 41 41 43 41 39 37 36
28 29 30 31 29 29 30 30 32 31 31 30 30 30 29 28 28 29 29 29 28 27 27 26 26 27 28 27 27 27 28 29 30 32 30 29 32 31 31 32 32 32 32 32 31 32 32 32 33 35 35 35 35 35 35 35 35 35 34 34 34 34 33 33 32 31 33 34 35 37 39 40 42 41 41 41 41 41 40 40 40 40 39 39 38 37 36
22 23 28 28 29 30 30 29 29 30 30 29 28 28 27 28 28 28 28 29 29 27 30 28 25 25 30 30 29 29 29 30 31 31 30 32 32 31 30 31 32 32 32 30 30 30 30 31 31 32 33 33 33 33 32 33 33 34 33 35 35 35 33 30 31 31 34 34 34 36 37 36 37 40 38 39 41 40 40 40 39 38 37 36 37 35 35
16 24 27 27 27 26 27 26 25 26 27 28 28 28 28 29 30 28 29 31 29 27 27 29 25 24 26 28 28 27 28 29 28 28 29 28 28 29 29 30 30 30 30 30 30 30 30 30 31 31 31 31 31 31 31 31 31 32 33 34 35 34 34 34 32 31 30 30 32 32 34 36 35 36 38 39 38 43 45 43 38 38 38 35 35 36 35
22 24 23 20 25 23 24 25 25 26 25 25 26 26 26 25 25 25 27 25 26 25 27 29 28 27 27 26 26 24 24 26 26 25 25 25 26 26 27 27 29 28 29 28 29 30 31 32 32 32 32 31 31 32 32 32 32 32 32 33 34 35 35 34 31 30 31 30 29 29 32 34 32 32 32 36 41 42 45 51 51 49 44 47 47 38 34
17 17 20 22 18 20 22 24 25 24 24 25 25 24 26 26 25 25 24 23 25 26 25 27 25 26 26 25 26 23 23 25 27 27 25 25 25 25 25 25 26 27 28 29 29 29 30 30 31 31 32 32 32 30 30 30 31 31 33 33 34 34 33 32 31 30 31 28 27 28 27 28 31 33 36 40 44 44 48 36 34 36 39 44 47 43 42
17 20 21 23 22 23 24 24 24 25 25 24 24 24 24 24 25 26 26 23 24 24 25 27 27 27 27 27 28 27 24 24 26 26 25 24 24 23 24 26 27 28 28 28 27 27 26 27 27 28 28 28 30 31 31 31 30 30 30 30 30 31 32 32 31 32 31 30 29 28 27 26 28 26 30 44 32 33 35 36 36 35 35 35 33 35 47
24 22 22 22 21 20 22 23 24 23 24 21 21 22 24 25 25 25 26 26 26 26 26 26 24 23 25 26 27 27 27 26 25 25 24 24 24 24 24 25 26 25 25 26 26 25 27 27 26 27 28 28 28 28 29 30 30 31 31 30 29 30 31 32 32 31 30 30 32 34 33 31 28 27 27 27 42 34 34 34 35 35 35 36 36 35 35
21 21 22 22 23 22 22 23 23 23 23 21 21 20 26 25 22 27 26 25 25 26 25 25 24 24 25 25 27 27 25 23 24 24 24 25 24 24 24 24 24 26 26 27 28 29 28 28 28 28 28 28 28 27 28 27 27 28 30 31 31 31 32 31 31 31 30 32 34 36 35 33 32 30 28 27 25 35 35 34 34 34 34 35 35 35 35
21 21 22 21 20 21 20 14 24 26 24 24 23 23 29 33 31 26 25 26 24 25 24 25 25 26 27 26 25 25 24 23 24 24 23 24 24 24 25 26 27 28 28 28 29 29 29 29 29 29 29 29 29 30 29 29 29 29 26 28 30 31 30 30 31 32 32 31 31 33 34 32 31 29 27 30 27 27 33 37 37 36 34 34 34 35 34
21 20 19 19 19 20 18 17 18 23 24 25 29 26 26 25 33 27 23 23 25 27 28 28 28 27 26 25 24 23 23 24 24 24 23 23 24 25 26 28 29 29 29 29 29 29 30 29 29 29 29 30 31 31 30 31 31 30 30 30 29 28 29 29 28 30 32 31 28 28 32 34 33 31 32 31 31 31 32 32 36 36 36 37 34 36 41
20 19 19 19 18 19 22 23 22 22 24 25 27 25 23 23 23 24 24 25 26 27 27 28 27 24 24 24 25 24 24 24 24 22 23 25 26 28 29 29 29 29 29 29 29 30 30 30 30 30 30 31 31 31 31 31 31 31 31 30 30 29 29 30 29 29 29 30 31 30 31 33 35 33 33 31 31 32 34 35 35 35 36 38 36 34 35
19 20 20 18 19 20 21 21 24 26 26 25 24 21 23 22 26 26 25 26 27 27 26 24 23 23 24 24 24 23 24 24 23 22 24 27 28 29 29 30 30 30 31 31 31 31 31 31 31 31 31 31 31 31 31 31 31 30 30 30 30 29 29 29 29 29 30 32 32 31 30 31 33 35 36 37 34 34 34 33 33 32 31 38 38 38 38
20 22 22 21 20 20 21 20 20 23 22 20 18 21 24 26 26 26 26 26 26 24 23 23 23 23 24 23 24 24 24 24 22 20 22 26 28 30 30 31 31 31 31 31 31 31 31 32 32 32 32 32 32 31 31 31 31 30 30 31 31 30 29 30 30 30 31 32 32 32 32 33 34 35 36 35 36 36 36 36 37 36 38 40 37 35 35
22 23 24 25 23 22 20 20 22 21 20 20 24 27 27 27 27 26 27 27 23 22 23 23 23 24 24 24 24 24 23 21 19 18 23 29 31 31 31 31 31 30 31 31 32 32 32 32 32 32 33 32 32 32 32 31 31 31 31 30 31 31 31 31 30 30 30 31 34 33 34 34 34 34 34 35 35 36 41 40 37 37 38 44 40 41 40
23 24 25 24 22 21 21 21 21 19 21 24 25 27 27 27 27 27 27 23 23 23 23 24 23 24 23 24 24 25 22 18 17 24 29 31 31 32 31 31 31 31 31 31 32 32 32 32 32 33 33 33 34 33 32 32 31 32 32 31 30 30 30 31 30 30 30 30 33 36 34 35 34 35 36 33 33 33 34 33 34 34 35 35 33 39 40
20 20 20 21 20 20 19 18 17 17 21 24 26 27 28 29 28 28 26 24 22 23 23 23 23 23 24 25 25 25 21 21 26 29 29 29 30 31 31 31 31 31 32 32 32 32 32 33 33 34 33 34 34 34 33 32 32 32 32 31 30 30 30 31 31 31 30 31 35 36 35 36 33 33 34 32 32 32 32 32 33 33 33 35 37 36 36
20 17 19 22 21 19 19 19 20 19 23 26 27 28 28 28 28 26 22 23 23 23 23 23 24 24 23 24 24 25 25 24 25 27 29 30 30 31 31 31 32 32 32 32 32 32 33 33 35 34 33 34 33 33 32 32 31 31 31 31 30 30 30 32 34 34 34 37 36 36 33 33 32 31 32 32 31 31 31 32 31 32 33 39 40 34 32
23 23 23 24 25 25 25 24 23 22 24 26 28 27 27 27 26 24 23 21 22 23 23 22 23 24 23 25 26 27 27 26 28 29 29 29 30 32 32 32 32 32 33 33 33 33 33 33 35 35 34 34 33 33 33 33 33 33 32 31 31 32 33 35 38 39 40 41 36 35 33 33 33 32 31 32 32 31 31 31 32 32 32 32 32 32 32
23 22 23 24 24 25 26 25 24 24 26 27 27 27 27 26 25 24 22 22 23 22 22 24 25 24 25 27 26 29 29 28 29 30 29 30 30 30 31 32 32 32 32 32 33 33 33 34 33 33 35 35 33 33 33 33 32 31 32 33 34 35 38 39 41 39 35 34 34 32 33 32 32 32 33 33 32 32 32 32 32 32 32 32 32 32 32
23 23 23 24 25 28 28 26 22 26 27 27 27 25 26 25 23 23 22 19 22 24 23 24 26 27 27 28 26 25 26 28 27 28 27 28 29 31 31 32 32 31 31 31 32 32 33 34 33 33 35 36 35 35 37 32 37 39 39 37 38 39 41 41 37 35 34 34 33 33 33 33 33 33 33 33 33 33 33 32 32 32 32 32 31 32 31
24 24 25 26 26 28 28 23 26 27 27 27 26 25 24 23 20 21 22 23 25 21 23 22 24 25 27 27 25 24 21 24 28 29 29 30 31 31 31 31 30 30 30 30 31 32 33 34 33 36 39 39 39 39 37 33 33 34 37 40 40 37 36 35 35 34 34 34 34 35 34 34 34 34 34 35 34 33 33 33 33 32 32 32 32 32 32
24 25 25 26 28 28 28 25 24 27 26 25 25 24 23 23 23 19 20 23 22 24 22 20 19 19 21 20 18 21 24 27 28 29 30 30 30 30 30 30 30 30 31 31 32 32 33 34 35 38 37 38 38 39 37 36 34 38 37 37 38 36 36 35 36 35 36 36 36 35 34 34 34 33 33 35 35 34 33 34 34 33 33 33 34 34 34
23 24 25 26 27 28 28 28 27 24 24 25 23 22 23 24 24 25 24 24 23 24 20 19 18 17 18 17 15 14 25 28 31 31 31 30 28 30 31 31 31 31 32 31 32 33 33 33 35 38 38 38 39 39 39 39 38 38 37 36 36 36 36 36 36 35 35 35 35 34 34 34 34 34 34 34 35 35 35 34 35 33 33 33 34 34 34
23 24 24 25 27 26 28 27 26 25 23 23 21 22 23 22 24 23 23 24 24 22 19 18 16 14 15 15 15 15 15 20 24 29 31 29 27 29 29 29 30 31 31 31 32 33 34 34 35 36 37 40 38 36 41 38 36 37 36 36 36 36 36 35 35 35 35 34 34 34 34 34 34 33 33 34 34 34 34 35 34 33 32 32 33 34 34
25 25 24 25 26 26 27 27 25 23 24 23 24 24 25 25 25 24 24 23 22 21 18 18 17 8 8 15 16 15 16 16 18 21 22 22 25 29 28 30 30 30 30 31 33 33 35 35 35 34 35 35 37 34 33 36 36 36 36 35 35 35 35 35 35 34 34 34 34 34 35 34 34 34 35 35 36 36 36 37 37 34 32 32 31 31 30
26 27 24 25 26 25 26 26 25 26 23 23 24 25 25 27 26 24 24 22 19 19 18 17 22 22 21 16 13 15 17 16 18 17 22 24 24 27 28 30 29 29 30 31 33 33 34 34 34 33 32 33 34 33 34 36 36 36 36 35 35 35 34 34 35 34 34 35 36 35 35 34 34 34 34 35 35 35 36 38 37 37 34 31 30 30 30
27 27 27 26 27 27 24 25 25 25 23 22 23 25 25 26 26 25 23 22 19 18 17 19 17 16 15 12 12 10 9 11 13 15 15 20 26 27 28 28 28 28 30 29 32 33 33 33 32 31 32 32 32 32 36 37 36 35 35 34 34 35 34 34 33 33 33 33 33 34 34 33 34 33 32 32 32 32 31 30 30 30 30 30 30 29 29
25 26 27 27 28 28 26 22 24 25 24 22 23 24 25 23 25 26 23 20 20 20 20 19 21 19 18 15 11 10 9 10 12 12 14 13 16 23 26 27 27 28 29 30 32 32 32 32 30 31 31 31 31 32 36 35 35 34 34 34 34 33 33 33 33 33 33 33 32 32 33 32 32 32 32 32 31 31 30 29 29 29 28 28 28 28 28
28 25 26 27 27 27 27 27 26 25 26 25 23 23 25 24 22 25 26 23 21 21 22 21 20 21 19 19 17 14 14 12 11 14 15 14 19 23 23 26 26 27 28 30 31 32 31 30 30 31 31 31 31 33 34 33 33 33 33 33 33 32 32 32 32 32 32 33 32 31 31 31 31 31 30 30 30 30 29 28 28 28 28 28 28 27 27
26 26 25 26 26 27 28 26 26 28 29 28 26 23 23 23 24 23 24 23 21 21 21 21 21 21 21 19 18 16 11 10 15 12 13 20 20 20 24 26 26 27 28 28 29 30 29 30 29 30 30 31 31 32 33 33 33 33 32 32 31 31 31 32 32 32 31 31 30 30 31 30 30 29 29 29 28 28 28 28 28 27 28 27 27 28 27
27 27 25 26 26 25 27 28 27 26 27 27 28 25 23 24 25 24 25 24 24 23 22 23 22 23 21 21 21 18 14 16 13 15 11 16 19 21 22 24 24 30 28 28 28 29 29 29 30 30 30 30 31 32 32 31 31 30 29 29 28 28 28 30 30 30 30 30 30 29 28 27 27 27 27 27 27 27 27 27 27 27 27 27 27 26 26
28 26 26 25 25 25 26 27 27 26 25 25 26 25 23 24 25 26 26 25 24 23 21 22 22 23 23 23 21 19 18 12 9 13 13 12 20 20 21 22 28 29 26 26 30 28 28 29 29 29 29 30 27 27 27 27 28 28 28 27 27 28 26 26 26 26 28 28 27 26 26 25 26 26 27 26 26 26 26 27 26 27 25 25 24 24 24
28 28 27 27 25 24 28 24 24 24 24 23 23 24 26 25 23 23 24 24 23 22 20 21 23 23 22 22 20 19 19 19 15 12 13 12 16 15 19 22 20 23 25 25 30 26 29 29 29 28 27 29 27 26 27 28 26 25 25 26 27 27 26 26 27 27 26 26 25 25 24 25 25 25 25 25 24 24 23 23 24 24 27 24 21 22 21
34 27 30 28 25 25 25 25 24 24 30 24 24 23 24 24 25 25 24 25 24 22 20 20 21 22 22 21 20 19 20 20 18 17 13 15 16 21 23 21 16 21 22 23 26 25 27 26 25 26 26 27 25 26 25 25 23 24 25 22 25 22 23 24 24 25 26 24 23 23 23 24 24 25 25 24 24 24 22 22 21 20 19 20 20 19 19
28 29 29 30 31 33 31 24 24 24 25 25 30 25 23 23 24 24 25 27 24 23 23 23 21 22 22 21 21 20 20 19 19 14 17 16 17 15 14 21 19 14 16 22 25 24 23 24 24 25 26 24 23 23 25 25 24 24 24 25 24 23 23 23 23 22 26 23 26 24 23 25 25 24 24 22 22 20 20 21 20 19 18 18 19 19 19